EW0362 Weather Reports


Display with metric or nautical units.
time (UTC)temp
F
wind
direction
speed
MPH
gust
MPH
rain 1hr
in
rain 24hr
in
rain mn
in
humidity
%
barometer
mb
20260508022204 47 321 0.0 0.0 0.00 0.02 0.02 67 1007.8
20260508021704 47 321 0.0 0.0 0.00 0.02 0.02 65 1007.9
20260508021204 48 321 0.0 0.0 0.00 0.02 0.02 65 1007.8
20260508020705 48 321 0.0 0.0 0.00 0.02 0.02 67 1007.7
20260508015204 49 321 0.0 0.0 0.00 0.02 0.02 65 1007.7
20260508013204 50 321 0.0 0.0 0.00 0.02 0.02 61 1007.3
20260508012204 51 321 0.0 0.0 0.00 0.02 0.02 62 1007.1
20260508011205 51 321 0.0 0.0 0.00 0.02 0.02 59 1007.0
20260508005703 52 321 0.0 1.0 0.00 0.02 0.02 54 1006.8
20260508005204 53 321 0.0 0.0 0.00 0.02 0.02 53 1006.7
20260508004204 53 321 0.0 0.0 0.00 0.02 0.02 51 1006.6
20260508002205 55 321 0.0 0.0 0.00 0.02 0.02 45 1006.5
20260508001204 55 321 0.0 0.0 0.00 0.02 0.02 44 1006.4
20260507235705 56 250 0.0 3.0 0.00 0.02 0.02 43 1006.2
20260507234705 57 258 0.0 1.0 0.00 0.02 0.02 43 1006.0
20260507233704 57 258 2.0 3.0 0.00 0.02 0.02 39 1006.1
20260507232205 58 336 1.0 3.0 0.00 0.02 0.02 41 1005.9
20260507231205 59 281 1.0 6.0 0.00 0.03 0.02 38 1005.7
20260507224705 60 44 0.0 2.0 0.00 0.07 0.02 37 1005.7
20260507224205 60 323 3.0 12.0 0.00 0.07 0.02 37 1005.7
20260507223705 60 319 3.0 9.0 0.00 0.07 0.02 35 1005.6
20260507223204 60 271 1.0 3.0 0.00 0.07 0.02 38 1005.5
20260507221704 61 221 2.0 7.0 0.00 0.08 0.02 36 1005.4
20260507220204 61 223 3.0 12.0 0.00 0.08 0.02 35 1005.3
20260507214704 62 302 2.0 6.0 0.00 0.09 0.02 36 1005.1
20260507214206 62 251 2.0 6.0 0.00 0.09 0.02 35 1005.1
20260507213704 62 273 1.0 7.0 0.00 0.09 0.02 37 1005.1
20260507212704 62 237 4.0 8.0 0.00 0.10 0.02 36 1005.1
20260507210206 63 157 1.0 8.0 0.00 0.10 0.02 36 1005.1
20260507203204 63 287 2.0 8.0 0.00 0.13 0.02 37 1005.0
20260507202705 63 274 2.0 7.0 0.00 0.13 0.02 39 1004.9
20260507202204 63 304 2.0 7.0 0.00 0.13 0.02 38 1005.0
20260507201705 63 10 2.0 8.0 0.00 0.13 0.02 38 1004.9
20260507201204 63 275 3.0 10.0 0.00 0.14 0.02 36 1005.0
20260507200705 63 255 2.0 9.0 0.00 0.14 0.02 39 1005.0
20260507200204 63 266 2.0 7.0 0.00 0.14 0.02 38 1005.0
20260507195204 63 220 3.0 6.0 0.00 0.14 0.02 38 1005.1
20260507193705 62 268 3.0 6.0 0.00 0.14 0.02 36 1005.3
20260507193205 62 251 3.0 9.0 0.00 0.14 0.02 37 1005.2
20260507192705 62 314 3.0 8.0 0.00 0.14 0.02 35 1005.3
20260507192204 62 277 1.0 7.0 0.00 0.14 0.02 37 1005.4
20260507191204 62 308 4.0 10.0 0.00 0.15 0.02 37 1005.5
20260507190204 62 245 2.0 7.0 0.00 0.16 0.02 35 1005.5
20260507185704 63 244 5.0 8.0 0.00 0.16 0.02 35 1005.6
20260507185205 63 268 2.0 8.0 0.00 0.16 0.02 38 1005.6
20260507184204 63 263 2.0 9.0 0.00 0.17 0.02 36 1005.8
20260507182705 63 289 4.0 7.0 0.00 0.18 0.02 37 1005.9
20260507182204 63 300 2.0 8.0 0.00 0.18 0.02 35 1005.9
20260507181705 63 286 2.0 7.0 0.00 0.18 0.02 34 1006.0
20260507181204 63 270 2.0 7.0 0.00 0.18 0.02 35 1006.0
20260507180704 63 283 2.0 9.0 0.00 0.18 0.02 38 1006.0
20260507180204 63 282 3.0 10.0 0.00 0.18 0.02 38 1006.0
20260507173205 62 262 3.0 10.0 0.00 0.18 0.02 36 1006.0
20260507172204 62 260 2.0 9.0 0.00 0.18 0.02 39 1005.9
20260507170704 61 251 3.0 12.0 0.00 0.18 0.02 36 1006.0
20260507164204 61 314 3.0 9.0 0.00 0.18 0.02 41 1006.5
20260507162704 61 354 2.0 8.0 0.00 0.18 0.02 44 1006.5
20260507162205 61 245 1.0 7.0 0.00 0.18 0.02 49 1006.6
20260507161204 60 196 2.0 7.0 0.00 0.18 0.02 46 1006.6
20260507160704 60 324 3.0 7.0 0.00 0.18 0.02 49 1006.7
20260507155704 60 253 1.0 8.0 0.00 0.18 0.02 52 1006.6
20260507154704 59 256 4.0 7.0 0.00 0.18 0.02 51 1006.7
20260507154204 59 215 2.0 6.0 0.00 0.18 0.02 51 1006.7
20260507153704 59 210 3.0 5.0 0.00 0.18 0.02 55 1006.8
20260507153204 59 290 1.0 6.0 0.00 0.18 0.02 56 1006.8
20260507152704 59 253 2.0 8.0 0.00 0.18 0.02 57 1006.9
20260507151704 59 260 1.0 9.0 0.00 0.18 0.02 59 1006.9
20260507151204 59 305 1.0 6.0 0.00 0.18 0.02 63 1007.0
20260507145204 58 305 2.0 6.0 0.00 0.18 0.02 62 1007.3
20260507144704 58 303 3.0 8.0 0.00 0.18 0.02 62 1007.2
20260507141704 58 337 0.0 6.0 0.00 0.18 0.02 63 1007.1
20260507135204 56 228 1.0 3.0 0.00 0.18 0.02 66 1007.1
20260507134205 56 297 2.0 3.0 0.00 0.18 0.02 68 1007.0
20260507133204 55 314 1.0 5.0 0.00 0.18 0.02 67 1007.1
20260507132704 55 258 1.0 3.0 0.00 0.18 0.02 69 1007.3
20260507132204 55 281 1.0 6.0 0.00 0.18 0.02 70 1007.3
20260507131206 54 243 0.0 3.0 0.00 0.18 0.02 71 1007.5
20260507130704 54 246 1.0 3.0 0.00 0.18 0.02 72 1007.5
20260507125704 53 358 1.0 3.0 0.00 0.18 0.02 75 1007.6
20260507125204 53 260 1.0 5.0 0.00 0.18 0.02 75 1007.6
20260507124705 53 217 0.0 3.0 0.00 0.18 0.02 76 1007.6
20260507124204 53 249 2.0 5.0 0.00 0.18 0.02 76 1007.6
20260507122705 52 347 2.0 5.0 0.00 0.18 0.02 81 1007.7
20260507122204 51 58 1.0 3.0 0.00 0.18 0.02 81 1007.8
20260507121704 51 347 1.0 3.0 0.00 0.18 0.02 82 1007.8
20260507120704 50 341 2.0 6.0 0.00 0.18 0.02 85 1007.8
20260507115705 49 251 0.0 2.0 0.00 0.18 0.02 87 1007.8
20260507115204 49 291 0.0 1.0 0.00 0.18 0.02 87 1007.8
20260507114704 49 292 0.0 2.0 0.00 0.18 0.02 87 1007.7
20260507112704 49 5 0.0 2.0 0.00 0.18 0.02 87 1007.6
20260507111205 49 15 0.0 0.0 0.00 0.18 0.02 89 1007.7
20260507110704 49 344 1.0 2.0 0.00 0.18 0.02 89 1007.7
20260507105204 49 6 0.0 2.0 0.00 0.18 0.02 91 1007.3
20260507104704 48 9 0.0 1.0 0.00 0.18 0.02 91 1007.4
20260507104204 48 9 0.0 0.0 0.00 0.18 0.02 91 1007.2
20260507103704 48 9 0.0 0.0 0.00 0.18 0.02 91 1007.1
20260507103204 48 9 0.0 0.0 0.00 0.18 0.02 91 1007.0
20260507102703 48 9 0.0 0.0 0.00 0.18 0.02 91 1007.1
20260507102204 48 9 0.0 0.0 0.00 0.18 0.02 91 1006.9
20260507101704 48 9 0.0 1.0 0.01 0.18 0.02 91 1007.1
20260507101204 48 9 0.0 0.0 0.01 0.18 0.02 91 1007.0
20260507100704 48 9 0.0 1.0 0.01 0.18 0.02 91 1007.2
20260507095703 49 9 0.0 3.0 0.01 0.18 0.02 91 1006.8
20260507095204 49 28 0.0 2.0 0.01 0.18 0.02 92 1006.9
20260507094204 49 259 0.0 0.0 0.01 0.18 0.02 92 1007.3
20260507093204 49 259 0.0 0.0 0.01 0.18 0.02 92 1007.2
20260507092204 49 259 0.0 0.0 0.01 0.18 0.02 92 1007.0
20260507091704 49 259 0.0 2.0 0.00 0.17 0.01 92 1007.1
20260507090205 49 256 0.0 1.0 0.00 0.17 0.01 92 1007.4
20260507085703 50 256 0.0 1.0 0.00 0.17 0.01 92 1007.1
20260507085204 50 256 0.0 1.0 0.00 0.17 0.01 92 1006.9
20260507084704 50 255 0.0 1.0 0.00 0.17 0.01 92 1006.9
20260507083704 50 256 0.0 0.0 0.00 0.17 0.01 92 1006.8
20260507082204 50 257 0.0 0.0 0.00 0.17 0.01 91 1006.7
20260507081204 51 258 0.0 2.0 0.00 0.17 0.01 90 1006.7
20260507080703 51 250 0.0 0.0 0.00 0.17 0.01 90 1006.7
20260507080204 51 257 1.0 2.0 0.00 0.17 0.01 89 1006.5
20260507075705 51 129 1.0 2.0 0.00 0.17 0.01 88 1006.7
20260507075204 51 193 0.0 1.0 0.00 0.17 0.01 89 1006.6
20260507074205 51 193 0.0 1.0 0.00 0.17 0.01 88 1007.0
20260507073704 51 256 1.0 3.0 0.00 0.17 0.01 88 1006.9
20260507073204 51 221 2.0 6.0 0.00 0.17 0.01 90 1006.5
20260507064703 52 291 0.0 5.0 0.00 0.17 0.01 89 1006.1
20260507064203 52 269 1.0 6.0 0.00 0.17 0.01 90 1006.1
20260507061204 52 266 0.0 1.0 0.00 0.17 0.01 90 1006.0
20260507060703 52 266 0.0 2.0 0.00 0.17 0.01 90 1006.0
20260507060204 52 266 0.0 3.0 0.00 0.17 0.01 90 1006.1
20260507054203 53 292 0.0 2.0 0.00 0.17 0.01 93 1006.5
20260507051703 53 294 0.0 1.0 0.00 0.17 0.01 92 1006.5
20260507051204 53 294 0.0 2.0 0.01 0.17 0.01 92 1006.5
20260507050704 53 294 1.0 2.0 0.01 0.17 0.01 91 1006.7
20260507043204 55 290 1.0 3.0 0.01 0.17 0.01 93 1006.4
20260507042703 55 324 0.0 3.0 0.01 0.17 0.01 93 1006.2
20260507041704 55 288 0.0 1.0 0.01 0.17 0.01 93 1006.4
20260507040703 56 292 2.0 7.0 0.00 0.16 0.00 92 1006.5
20260507035704 57 243 1.0 5.0 0.00 0.16 0.16 94 1006.3
20260507034204 57 247 0.0 3.0 0.00 0.16 0.16 93 1005.8
20260507033203 58 330 1.0 3.0 0.00 0.16 0.16 95 1005.6
20260507031703 59 280 0.0 3.0 0.00 0.16 0.16 95 1005.4
20260507031204 59 285 1.0 2.0 0.00 0.16 0.16 95 1005.2
20260507030704 59 284 0.0 3.0 0.00 0.16 0.16 95 1005.3
20260507030205 60 285 1.0 3.0 0.00 0.16 0.16 95 1005.5
20260507023703 60 247 1.0 6.0 0.00 0.16 0.16 96 1005.1